Weather History for KDMN - November, 2011

Change the Weather History Date:

Thursday, November 10, 2011

  Actual Average Record
Temperature  
Mean Temperature 44 °F 52 °F  
Max Temperature 57 °F 68 °F 81 °F (1999)
Min Temperature 30 °F 36 °F 20 °F (1948)
Degree Days  
Heating Degree Days 22    
Moisture  
Dew Point 15 °F    
Average Humidity 36    
Maximum Humidity 59    
Minimum Humidity 18    
Precipitation  
Precipitation 0.00 in 0.02 in 0.18 in (1991)
Month to date precipitation 0.20  
Year to date precipitation 10.15  
Sea Level Pressure  
Sea Level Pressure 30.36 in    
Wind  
Wind Speed 6 mph (ENE)    
Max Wind Speed 12 mph    
Max Gust Speed 20 mph    
Visibility 10 miles    
Events      
T = Trace of Precipitation, MM = Missing Value Source: NWS Daily Summary

Daily Weather History Graph

Daily Weather History Graph

Search for Another Location

Airport or City:

Trip Planner

Search our weather history database for the weather conditions in past years. The results will help you decide how hot, cold, wet, or windy it might be!

Date:

Astronomy

Nov. 10, 2011 Rise Set
Actual Time 6:35 AM MST 5:13 PM MST
Civil Twilight 6:09 AM MST 5:39 PM MST
Nautical Twilight 5:40 AM MST 6:08 PM MST
Astronomical Twilight 5:11 AM MST 6:37 PM MST
Moon 5:07 PM MST (11/10) 6:27 AM MST (11/10)
Length of Visible Light 11h 29m
Length of Day
10h 38m
Full, 100% of the Moon is Illuminated
Nov 10
Full
Nov 10
Full
Nov 18
Last Quarter
Nov 24
New
Dec 2
First Quarter

Hourly Weather History & Observations

Time (MST) Temp. Windchill Dew Point Humidity Pressure Visibility Wind Dir Wind Speed Gust Speed Precip Events Conditions
12:53 AM 35.1 °F 27.4 °F 19.0 °F 52% 30.40 in 10.0 mi NE 10.4 mph - N/A   Clear
1:53 AM 33.1 °F 30.0 °F 19.0 °F 56% 30.40 in 10.0 mi ENE 3.5 mph - N/A   Clear
2:53 AM 33.8 °F - 19.4 °F 56% 30.47 in 10.0 mi Calm Calm - N/A   Clear
3:53 AM 32.0 °F 28.7 °F 18.0 °F 56% 30.41 in 10.0 mi ENE 3.5 mph - N/A   Clear
4:53 AM 33.1 °F - 19.0 °F 56% 30.41 in 10.0 mi Calm Calm - N/A   Clear
5:53 AM 35.6 °F 31.7 °F 19.4 °F 52% 30.48 in 10.0 mi ENE 4.6 mph - N/A   Clear
6:53 AM 30.9 °F - 18.0 °F 59% 30.47 in 10.0 mi Calm Calm - N/A   Clear
7:53 AM 39.9 °F - 19.9 °F 45% 30.47 in 10.0 mi Calm Calm - N/A   Clear
8:53 AM 44.1 °F 41.5 °F 21.0 °F 40% 30.48 in - East 4.6 mph - N/A   Clear
9:53 AM 48.2 °F - 19.4 °F 32% 30.51 in - ESE 11.5 mph - N/A   Clear
10:53 AM 51.8 °F - 19.4 °F 28% 30.49 in 10.0 mi ESE 9.2 mph - N/A   Clear
11:53 AM 54.0 °F - 17.1 °F 23% 30.39 in 10.0 mi ESE 9.2 mph - N/A   Clear
12:53 PM 55.9 °F - 17.1 °F 22% 30.34 in 10.0 mi East 11.5 mph 19.6 mph N/A   Clear
1:53 PM 57.0 °F - 15.1 °F 19% 30.31 in 10.0 mi Variable 5.8 mph 17.3 mph N/A   Clear
2:53 PM 57.0 °F - 14.0 °F 18% 30.28 in 10.0 mi East 11.5 mph - N/A   Clear
3:53 PM 55.9 °F - 12.9 °F 18% 30.27 in 10.0 mi East 10.4 mph - N/A   Clear
4:53 PM 53.1 °F - 12.0 °F 20% 30.27 in 10.0 mi East 5.8 mph - N/A   Clear
5:53 PM 46.0 °F 41.9 °F 10.9 °F 24% 30.27 in 10.0 mi East 8.1 mph - N/A   Clear
6:53 PM 41.0 °F 36.4 °F 10.0 °F 28% 30.30 in 10.0 mi ENE 6.9 mph - N/A   Clear
7:53 PM 39.0 °F 36.8 °F 10.0 °F 30% 30.28 in 10.0 mi East 3.5 mph - N/A   Clear
8:53 PM 36.0 °F 30.3 °F 9.0 °F 33% 30.27 in 10.0 mi NE 6.9 mph - N/A   Clear
9:53 PM 36.0 °F 29.6 °F 9.0 °F 33% 30.25 in 10.0 mi ENE 8.1 mph - N/A   Clear
10:53 PM 36.0 °F 32.1 °F 10.0 °F 34% 30.23 in 10.0 mi ENE 4.6 mph - N/A   Clear
11:53 PM 36.0 °F 31.1 °F 10.9 °F 36% 30.21 in 10.0 mi NE 5.8 mph - N/A   Clear